Orbital Elements at Epoch 2459200.5 (2020-Dec-17.0) TDB
Reference: JPL 22 (heliocentric ecliptic J2000)
Element | Value | Uncertainty (1-sigma) | Units |
e | .07318392926984321 | 4.1766e-08 | |
a | 2.694361662907818 | 1.5194e-08 | au |
q | 2.497177689542195 | 1.1787e-07 | au |
i | 10.17614611887719 | 3.53e-06 | deg |
node | 273.779796386766 | 2.9427e-05 | deg |
peri | 224.8720264759615 | 4.5833e-05 | deg |
M | 253.8401014521596 | 3.7654e-05 | deg |
tp | 2459676.865451426916 (2022-Apr-07.36545143) | 0.00017048 | TDB |
period | 1615.40812359017 4.42 | 1.3664e-05 3.741e-08 | d yr |
n | .2228538997314911 | 1.885e-09 | deg/d |
Q | 2.891545636273441 | 1.6306e-08 | au |
|
| | Orbit Determination Parameters
Additional Information
|